Regional Weather Roundup
Issued by NWS

Home | Current Version | Previous Version | Graphics & Text | Print | Product List | Glossary On
Versions: 1 2 3 4 5 6 7 8 9 10 11 12 13 14 15 16 17 18 19 20 21 22 23 24 25 26 27 28 29 30 31 32 33 34 35 36 37 38 39 40 41 42 43 44 45 46 47 48 49 50
000
ASUS43 KOAX 012210
RWRNE

WEATHER ROUNDUP FOR NEBRASKA
NATIONAL WEATHER SERVICE OMAHA NE
500 PM CDT SAT AUG 01 2015

NOTES: SATELLITE DATA IS BEING USED TO AUGMENT CLOUD COVER ABOVE
       12000 FEET.
       "FAIR" INDICATES FEW OR NO CLOUDS BELOW 12,000 FEET WITH NO
       SIGNIFICANT WEATHER AND/OR OBSTRUCTIONS TO VISIBILITY.

  * THESE STATIONS DO NOT REPORT WEATHER SUCH AS RAIN...SNOW OR FOG.

NEZ001>004-019>022-054>056-012300-
NEBRASKA PANHANDLE

CITY           SKY/WX    TMP DP  RH WIND       PRES   REMARKS
SCOTTSBLUFF    MOSUNNY   94  49  21 NE13      29.98F HX  90
ALLIANCE       PTSUNNY   74  62  66 S22G30    30.01F THUNDER
CHADRON        CLOUDY    91  62  37 SE20G29   29.94F HX  91
KIMBALL        MOSUNNY   87  48  26 S16       30.06R
SIDNEY         MOSUNNY   89  52  28 S15G28    30.02F
$$

NEZ057>060-069>072-079>082-012300-
SOUTHWEST NEBRASKA

CITY           SKY/WX    TMP DP  RH WIND       PRES   REMARKS
NORTH PLATTE   SUNNY     82  60  47 SE15G26   30.01F
IMPERIAL       SUNNY     93  50  23 S17       30.00F HX  90
LEXINGTON      SUNNY     85  59  40 E14G20    30.03F
MCCOOK         MOSUNNY   90  59  35 SE13      29.99F
OGALLALA       SUNNY     88  64  45 SE13G23   30.00F
$$

NEZ005>010-023>029-035>040-094-012300-
NORTH CENTRAL NEBRASKA

CITY           SKY/WX    TMP DP  RH WIND       PRES   REMARKS
VALENTINE      SUNNY     83  57  41 S25G32    29.96F
AINSWORTH      SUNNY     83  56  39 S18G25    29.97S
BROKEN BOW     PTSUNNY   80  52  37 S14G29    30.00F
O`NEILL        SUNNY     88  55  33 SW16      29.93F
ORD            PTSUNNY   81  59  47 S12       29.96F
THEDFORD       MOSUNNY   78  59  52 S18       30.02F
$$

NEZ041-046>049-061>064-073>077-083>087-012300-
SOUTH CENTRAL NEBRASKA

CITY           SKY/WX    TMP DP  RH WIND       PRES   REMARKS
GRAND ISLAND   PTSUNNY   80  60  50 S7        30.00F
AURORA         MOSUNNY   78  60  53 S5        29.99F
HASTINGS       SUNNY     82  61  48 NE9       30.02F
HEBRON         SUNNY     91  59  34 W7        29.98F HX  90
HOLDREGE       SUNNY     87  60  40 E7        30.02F
KEARNEY *      MOSUNNY   82  61  47 E13       30.02F
YORK           MOSUNNY   77  68  73 CALM      29.99F
$$

NEZ011>018-030>034-042>045-012300-
NORTHEAST NEBRASKA

CITY           SKY/WX    TMP DP  RH WIND       PRES   REMARKS
NORFOLK        MOSUNNY   88  55  32 SW6       29.92F
ALBION         MOSUNNY   81  62  52 SW8       29.95S
BLAIR          CLOUDY    81  69  66 S8        29.95F
COLUMBUS *     PTSUNNY   81  61  50 S10       29.94S
FREMONT        CLOUDY    82  65  55 S3        29.96F
TEKAMAH        CLOUDY    79  70  74 S8        29.93F
WAYNE          MOSUNNY   83  67  58 SE7       29.92F
$$

NEZ050>053-065>068-078-088>093-012300-
SOUTHEAST NEBRASKA

CITY           SKY/WX    TMP DP  RH WIND       PRES   REMARKS
LINCOLN        MOSUNNY   86  56  35 S5        29.97F
OMAHA EPPLEY   CLOUDY    83  67  58 S9        29.94F
BEATRICE       MOSUNNY   86  69  55 W10       29.98F HX  90
FALLS CITY     PTSUNNY   87  72  60 SW3       29.95F HX  93
NEBRASKA CITY  PTSUNNY   85  67  55 W7        29.98F
PLATTSMOUTH    CLOUDY    81  70  69 SW7       29.97F
$$

NEZ044-045-051>053-067-012300-
OMAHA AREA

CITY           SKY/WX    TMP DP  RH WIND       PRES   REMARKS
OMAHA EPPLEY   CLOUDY    83  67  58 S9        29.94F
BLAIR          CLOUDY    81  69  66 S8        29.95F
FREMONT        CLOUDY    82  65  55 S3        29.96F
MILLARD        CLOUDY    83  68  61 SW7       29.94F
OFFUTT AFB     CLOUDY    83  67  58 S7        29.94F
PLATTSMOUTH    CLOUDY    81  70  69 SW7       29.97F
WAHOO          FAIR      81  64  56 S9        29.94F
$$



USA.gov is the U.S. government's official web portal to all federal, state and local government web resources and services.